Theta_e
313 313 313 312 312 313 311 309 309 311 311 310 308 307 308 311 313 313 313 315 315 314 314 313 312 313 314 314 311 312 314 314 315 315 315 315 315 316 316 314 314 315 316
313 312 313 313 310 308 306 307 311 311 310 308 307 310 311 313 314 314 314 315 314 314 313 313 313 314 313 313 311 312 315 315 316 316 314 314 315 316 315 314 314 315 318
313 312 310 308 307 306 305 305 309 309 309 307 308 311 314 314 315 314 314 314 314 314 312 312 314 313 313 314 312 315 315 315 315 314 314 314 316 318 316 315 314 315 315
310 308 307 306 306 305 304 303 304 307 307 306 309 312 312 312 313 314 314 314 314 313 312 313 313 313 313 313 315 315 315 315 314 314 314 315 315 317 316 316 316 316 316
307 306 305 304 302 302 304 304 306 307 306 306 309 311 311 313 314 314 314 314 313 313 313 314 314 314 314 313 314 314 313 314 315 315 314 315 317 317 318 317 318 316 316
304 303 302 303 304 303 304 305 305 305 305 305 309 311 311 314 313 313 313 313 313 312 312 313 314 314 314 313 314 312 314 315 315 315 315 317 316 316 313 314 316 317 315
303 303 304 305 305 304 304 303 303 302 303 304 311 311 312 312 313 313 313 311 313 313 313 314 313 314 314 314 312 315 315 314 315 315 316 316 315 315 314 316 317 316 318
303 304 304 305 305 305 303 302 302 302 303 305 311 311 311 313 314 314 313 313 313 313 312 313 312 312 314 313 313 313 316 317 315 315 315 315 317 317 317 318 317 317 315
304 304 304 304 303 304 304 301 302 304 304 307 309 310 310 313 314 313 313 313 314 312 313 313 312 311 313 312 313 315 316 313 317 317 317 317 317 312 315 316 317 317 313
304 304 304 302 302 302 302 301 302 303 305 308 309 310 310 310 313 312 313 313 312 312 312 314 314 315 312 313 314 313 316 317 314 312 313 312 310 308 306 312 310 311 311
305 304 304 303 301 302 301 301 302 303 305 307 308 308 309 309 313 314 314 313 313 312 313 313 313 314 313 312 314 312 312 316 317 316 313 310 310 314 314 313 314 315 316
306 305 304 303 302 302 300 301 302 304 305 307 307 308 308 309 314 314 313 314 313 312 312 312 313 312 309 311 313 314 312 311 314 317 317 318 318 318 315 315 315 314 314
306 305 304 301 302 300 300 301 303 305 306 305 306 307 307 310 314 314 314 314 313 312 311 312 313 311 308 311 314 313 313 311 313 315 318 318 318 317 316 315 315 314 314
306 306 304 302 300 300 300 302 302 304 305 304 306 307 308 308 312 314 313 312 311 310 309 313 313 312 311 309 308 309 308 309 313 314 313 315 317 318 317 315 316 314 315
307 305 305 302 301 301 301 301 301 303 305 306 305 305 307 308 310 313 313 311 312 312 313 311 311 313 313 313 310 310 309 308 311 312 313 312 312 314 317 316 316 315 314
308 306 304 302 302 302 303 302 301 302 306 306 305 305 308 309 313 313 313 312 312 310 313 314 314 314 314 313 312 312 311 309 309 311 312 314 316 315 312 312 314 315 315
308 305 305 302 303 303 303 303 302 305 305 307 305 305 307 311 312 313 314 314 313 311 310 312 312 313 315 314 313 312 311 310 306 309 312 313 315 316 314 315 315 315 314
308 305 305 304 303 303 303 303 302 302 305 305 305 305 305 309 312 313 313 314 313 313 312 312 312 312 313 313 313 314 314 313 305 306 310 312 313 315 315 314 315 315 315
308 306 305 304 303 303 303 303 303 302 303 304 304 305 305 305 310 313 313 314 314 314 313 313 313 313 313 314 315 316 313 316 315 313 313 311 312 314 314 313 313 313 312
308 308 307 305 305 305 304 304 303 303 303 303 304 304 303 304 306 310 313 314 314 315 315 314 314 314 313 313 314 314 315 315 315 314 314 314 313 312 312 313 313 313 312
308 308 308 307 306 305 305 305 304 303 303 303 304 304 303 302 303 307 310 313 313 313 314 314 315 315 314 313 311 312 314 315 316 315 315 314 312 313 313 313 312 312 313
309 309 309 308 308 306 305 304 305 304 303 303 304 304 303 303 304 304 306 309 312 313 313 313 314 315 315 315 314 313 314 313 312 315 314 313 314 314 314 314 313 313 313
311 312 312 310 309 308 307 305 304 304 304 303 303 303 304 304 304 305 305 304 307 310 313 313 313 313 315 314 313 314 312 313 315 315 314 314 315 315 315 314 314 313 314
313 312 312 313 312 310 309 307 306 304 304 304 304 304 304 304 304 304 304 305 305 305 308 312 313 314 314 314 314 314 315 315 313 312 312 313 314 315 314 315 315 314 314
313 313 313 313 313 313 311 309 308 306 305 305 304 305 305 305 305 304 305 305 304 304 304 305 307 311 313 313 314 314 314 313 313 313 313 314 314 315 315 315 315 315 315
312 312 311 310 309 311 311 310 308 308 307 306 306 305 305 306 306 306 306 306 306 305 305 305 304 303 305 310 312 312 312 311 311 311 311 313 314 315 314 314 315 316 316
Wind_Speed
20 20 21 22 24 26 29 30 29 26 25 27 28 29 28 25 21 20 21 20 21 18 17 15 15 14 14 14 17 18 18 19 22 22 18 15 16 12 10 7 14 22 25
18 19 20 23 28 30 31 27 23 25 26 28 29 26 24 22 16 15 18 20 19 18 14 13 14 12 12 12 14 16 16 18 20 18 15 14 14 7 7 7 13 20 17
18 22 25 27 29 28 27 24 23 25 27 28 26 22 20 14 12 14 14 16 15 13 12 15 10 11 9 10 14 15 14 13 12 14 19 11 9 5 8 10 12 15 14
22 25 29 30 28 29 28 26 23 23 24 26 23 21 18 13 11 11 13 13 10 13 12 12 10 9 7 11 11 8 9 10 13 18 9 9 6 6 9 12 13 14 13
26 28 28 28 27 24 23 22 19 19 21 24 23 19 19 16 11 10 11 14 12 14 12 10 6 6 7 9 9 9 9 13 14 8 8 6 5 8 10 13 16 15 18
24 23 22 21 22 21 20 19 19 20 21 23 21 19 16 11 10 11 11 5 11 15 11 9 4 2 5 9 10 11 18 3 5 12 10 7 6 14 9 13 13 19 19
21 18 18 19 21 21 21 22 24 24 22 21 19 14 15 13 9 12 13 10 12 11 7 7 5 4 4 6 9 11 8 9 10 14 11 8 8 19 20 21 21 24 23
20 18 19 21 23 23 23 25 27 24 19 20 16 12 15 11 10 16 16 14 12 9 7 7 5 3 3 6 5 16 16 15 13 11 9 10 12 17 15 21 21 21 23
17 19 21 22 26 25 22 25 24 22 18 18 16 15 14 11 5 14 20 16 14 10 9 5 7 4 3 5 10 7 14 18 20 20 21 21 20 16 17 21 17 17 16
18 23 23 22 27 25 21 24 23 21 17 15 14 12 13 14 4 16 18 16 17 11 10 8 10 6 4 1 6 7 8 15 18 19 21 21 19 18 17 15 15 15 16
22 24 22 24 26 21 20 23 23 19 15 13 10 15 16 14 7 15 18 20 16 13 10 8 9 5 5 2 8 8 9 10 14 16 19 18 18 18 18 15 13 11 11
23 24 21 23 21 18 20 22 20 16 13 11 14 13 18 17 6 15 16 18 18 13 10 8 9 6 5 8 9 6 7 9 10 14 14 12 13 11 13 14 13 12 12
25 20 19 19 16 15 19 20 18 14 13 17 18 14 15 12 5 12 15 19 16 12 10 12 11 10 8 8 9 8 5 5 7 8 9 12 11 14 15 14 13 11 9
24 18 17 13 15 16 16 14 17 16 15 19 17 12 10 11 1 14 17 18 15 11 13 11 11 11 9 7 7 6 5 6 6 7 8 10 13 14 13 13 9 8 5
22 18 12 12 14 14 14 16 19 15 17 12 12 15 14 2 3 16 19 19 15 13 14 12 11 10 9 9 8 6 5 5 7 8 8 9 9 10 11 13 8 7 6
20 13 11 10 12 13 14 14 11 11 11 8 13 17 13 9 11 16 20 18 16 15 15 11 9 9 9 11 9 7 6 7 9 10 8 7 8 8 8 11 9 8 6
18 17 11 11 11 11 11 13 12 5 8 5 11 16 17 11 9 14 12 17 17 16 15 12 10 9 8 11 10 8 7 7 12 12 9 7 6 9 10 9 8 7 8
16 16 15 10 10 10 10 10 10 7 4 5 8 11 15 12 5 9 14 16 16 16 14 14 12 9 7 9 9 8 9 9 11 13 13 12 10 10 11 10 8 8 6
15 14 14 13 11 10 11 10 9 9 8 8 7 7 8 8 4 1 12 12 12 13 12 13 13 12 11 10 9 7 10 10 10 11 11 14 15 13 12 12 12 12 10
18 15 14 13 11 11 11 11 10 9 8 8 8 7 7 5 2 1 7 12 12 10 10 10 11 11 13 13 13 8 8 11 9 7 5 12 14 17 16 14 12 12 12
21 19 17 16 13 12 11 11 11 11 10 8 7 7 7 6 5 6 6 7 13 11 12 12 11 11 12 14 20 13 9 8 8 7 6 7 17 15 14 13 13 11 11
22 23 21 19 18 15 13 13 11 11 12 11 10 9 9 7 6 7 8 10 12 16 17 17 14 13 13 12 16 17 15 14 13 9 9 10 8 12 16 16 15 13 11
23 23 24 23 22 21 19 17 14 12 12 12 12 11 10 10 9 9 9 10 13 17 17 18 19 18 15 18 19 18 19 18 14 14 14 12 11 12 12 13 16 16 15
26 26 25 25 25 25 25 22 17 16 14 14 14 14 13 13 13 12 12 12 13 15 18 21 21 22 23 21 23 23 20 19 23 19 19 18 15 16 14 14 17 18 18
19 21 21 25 27 26 27 28 26 21 18 17 17 17 17 16 16 16 16 15 15 16 17 18 24 26 25 25 25 25 25 23 20 20 20 21 22 17 14 14 15 15 15
24 23 23 20 21 22 24 27 27 25 24 23 21 21 19 19 19 18 18 18 18 18 19 18 19 23 25 29 30 28 27 24 21 21 22 21 20 19 20 20 16 13 13
Wind_Direction
286 286 289 293 297 300 304 306 306 302 303 308 310 308 307 303 294 269 248 239 237 231 244 250 253 259 261 270 284 283 277 272 275 291 301 302 292 280 270 262 202 198 200
291 300 303 306 306 308 310 311 304 300 306 312 313 311 307 300 285 254 246 234 230 234 232 245 263 261 261 280 289 285 273 273 275 282 292 277 281 263 217 189 187 189 193
309 311 312 312 311 312 315 313 305 302 305 313 312 310 317 298 276 253 230 230 234 220 216 250 251 257 265 297 297 286 273 269 278 286 283 265 271 222 181 179 183 190 198
314 313 314 315 316 316 317 315 306 307 308 313 314 303 316 305 274 246 230 229 225 211 226 233 245 248 295 305 300 293 277 267 289 288 250 244 217 194 186 179 169 182 179
316 319 319 319 320 322 324 326 320 309 313 313 314 305 317 295 249 240 236 229 222 205 231 229 245 247 282 311 316 311 302 289 286 214 209 200 171 149 160 173 178 178 172
328 327 330 332 336 332 328 331 325 316 315 316 315 307 305 295 252 232 216 218 196 205 225 224 190 278 270 292 305 318 303 155 192 169 173 177 161 139 169 124 167 163 145
343 337 335 334 334 337 332 329 326 322 313 316 319 306 304 284 266 228 216 190 202 214 204 189 229 252 286 359 357 4 90 98 128 143 150 136 121 142 138 149 151 157 146
346 338 335 334 332 328 328 330 329 327 320 319 320 315 325 282 272 214 201 200 207 188 187 156 148 150 104 21 42 68 72 95 113 126 154 150 126 132 133 147 141 133 136
336 340 340 339 338 330 328 332 334 333 329 325 327 329 331 288 289 193 188 194 200 188 168 164 151 127 108 81 54 73 88 89 95 103 112 120 122 115 128 130 128 128 123
338 337 337 333 335 330 335 338 334 329 325 325 336 334 335 320 231 179 188 198 186 192 174 184 174 163 149 338 51 51 94 104 106 115 120 121 119 109 128 138 125 123 123
336 329 333 333 335 335 338 338 334 331 326 330 337 337 337 305 237 191 187 186 192 178 173 177 177 185 179 192 107 88 96 107 120 130 127 125 126 124 123 127 132 137 127
328 327 329 335 333 334 341 335 336 333 333 337 353 352 339 322 197 188 189 192 183 184 180 181 169 175 166 162 144 151 105 101 116 144 144 148 149 146 144 139 137 130 128
327 330 337 343 347 352 342 344 352 348 352 349 358 356 337 359 162 179 178 170 176 186 187 180 173 165 136 150 153 160 141 117 135 136 141 143 146 149 151 147 140 133 128
325 330 337 349 345 354 353 353 354 355 352 345 346 360 353 328 147 170 174 177 179 184 181 179 177 184 169 153 160 165 160 161 145 141 149 161 163 163 158 156 149 147 129
329 332 328 336 337 345 349 340 339 343 346 359 7 358 353 340 309 174 178 177 179 180 178 176 196 196 199 198 182 173 168 170 170 158 151 154 165 179 180 174 168 160 161
329 327 322 318 326 339 342 343 349 333 353 27 16 9 6 357 161 174 182 183 191 191 189 186 197 207 214 205 203 205 217 219 203 188 170 166 171 169 169 183 184 179 180
328 329 321 316 323 326 335 343 346 13 16 10 13 14 11 41 164 174 184 190 194 201 202 216 215 225 215 202 207 219 231 220 207 203 196 186 182 175 175 176 183 181 178
327 329 327 310 310 321 328 333 336 330 336 343 352 5 12 20 93 184 196 197 200 205 209 215 222 214 198 201 212 221 214 200 194 200 206 206 199 188 183 188 193 189 189
311 321 322 322 304 303 313 317 321 321 312 308 321 338 342 11 26 262 210 189 200 204 208 216 219 225 221 220 218 226 199 204 202 202 204 210 210 204 203 211 215 219 225
305 301 306 312 317 296 297 303 301 307 311 312 318 314 316 319 314 295 206 204 208 214 214 213 217 224 226 223 212 193 187 192 202 209 225 212 208 211 213 219 222 222 234
297 295 293 294 297 310 292 288 289 286 289 293 297 300 311 306 285 237 220 201 206 221 226 230 229 226 222 222 209 221 215 201 199 211 216 221 213 209 209 212 220 228 240
287 292 285 284 283 283 297 299 283 274 274 277 281 282 288 293 281 270 253 236 224 223 229 232 229 232 226 220 211 217 226 233 239 233 229 235 221 224 226 228 230 239 242
281 285 286 280 276 277 280 284 288 274 265 263 264 270 271 268 263 261 261 252 246 237 234 230 230 230 232 228 223 223 230 232 236 236 240 242 240 235 232 228 227 238 242
280 280 288 283 279 272 270 271 267 277 274 266 262 261 260 263 260 261 262 261 261 250 242 238 235 231 229 228 229 227 228 231 235 244 252 256 244 241 241 238 240 244 241
286 278 280 285 280 281 273 262 262 265 267 272 273 264 263 262 258 258 262 263 260 260 255 248 243 237 234 234 233 231 229 230 236 246 253 248 243 237 236 238 237 240 240
298 291 285 286 283 280 274 266 265 262 265 265 266 272 264 259 259 260 260 260 263 257 254 253 255 253 246 240 237 236 240 240 240 247 247 244 240 241 242 237 233 235 235